Regional Weather Roundup
Issued by NWS

Home | Current Version | Previous Version | Text Only | Print | Product List | Glossary Off
Versions: 1 2 3 4 5 6 7 8 9 10 11 12 13 14 15 16 17 18 19 20 21 22 23 24 25 26 27 28 29 30 31 32 33 34 35 36 37 38 39 40 41 42 43 44 45 46 47 48 49 50

000
ASUS43 KMPX 200710
RWRMN
WEATHER ROUNDUP FOR MINNESOTA
NATIONAL WEATHER SERVICE TWIN CITIES/CHANHASSEN MN
200 AM CDT SAT SEP 20 2014


NOTE: "FAIR" INDICATES FEW OR NO CLOUDS BELOW 12,000 FEET WITH NO
SIGNIFICANT WEATHER AND/OR OBSTRUCTIONS TO VISIBILITY. N/A MEANS
CURRENT SKY AND/OR WEATHER CONDITIONS ARE NOT AVAILABLE.

MNZ060>063-068>070-200800-
   Twin Cities Metro

CITY           SKY/WX    TMP DP  RH WIND       PRES   REMARKS
TWIN CITIES    CLOUDY    72  67  84 SW10      29.68S
ST PAUL        CLOUDY    69  67  93 E5        29.68S
CRYSTAL        CLOUDY    72  66  81 SW8       29.66S
BLAINE         MOCLDY    72  70  94 S7        29.67S
LAKEVILLE      CLOUDY    68  63  83 S9        29.70S
EDEN PRAIRIE   CLOUDY    70  67  90 SW8       29.68R
SOUTH ST PAUL  CLOUDY    72  67  84 SW6       29.68R
LAKE ELMO      FAIR      70  68  94 S8        29.69R
$$
MNZ001>005-007-008-013>017-022>024-027-028-200800-
   Northwest Minnesota

CITY           SKY/WX    TMP DP  RH WIND       PRES   REMARKS
BEMIDJI        CLOUDY    60  58  93 NW15      29.64R
HALLOCK        CLOUDY    57  55  94 NW12G20   29.72R
ROSEAU         CLOUDY    55  50  82 NW8       29.68R
WARROAD        DRIZZLE   54  50  87 W10G16    29.67R
THIEF RVR FALL PTCLDY    57  54  88 NW13      29.71R
CROOKSTON      MOCLDY    57  55  94 NW12      29.73R
FOSSTON        CLOUDY    59  57  94 NW10      29.70R
DETROIT LAKES  CLOUDY    59  57  94 NW12      29.72R
MOORHEAD       CLEAR     61  59  94 N8        29.73R
PARK RAPIDS    CLEAR     61  58  90 NW14      29.65R
MAHNOMEN       CLOUDY    59  58  97 NW9G16    29.70R FOG
$$
MNZ006-009>011-018-025>026-200800-
   North Central Minnesota

CITY           SKY/WX    TMP DP  RH WIND       PRES   REMARKS
BAUDETTE       CLOUDY    56  54  93 NW14G23   29.62R
FLAG ISLAND    CLOUDY    55  54  94 NW16      29.63R
INTL FALLS     PTCLDY    58  57  97 NW8       29.57R
WASKISH        CLOUDY    61  57  88 W7        29.63R
BIG FORK       MOCLDY    63  61  94 W3        29.59R FOG
LONGVILLE      PTCLDY    63  61  94 W6        29.61R
GRAND RAPIDS   CLEAR     64  61  88 W6        29.59S
CRANE LAKE     CLOUDY    57  57 100 CALM      29.56F FOG
ORR            CLOUDY    61  59  94 CALM      29.54S FOG
COOK           CLOUDY    63  63 100 CALM      29.56F FOG
WALKER         PTSUNNY   62  59  90 NW14      29.63R
$$
MNZ012-019>021-037-200800-
   Northeast Minnesota

CITY           SKY/WX    TMP DP  RH WIND       PRES   REMARKS
DULUTH         FOG       62  60  93 S10       29.63R VSB 1/4
ELY            CLOUDY    61  59  94 SE3       29.58F FOG
HIBBING        CLOUDY    64  62  93 S3        29.58S FOG
EVELETH        CLOUDY    63  61  94 S3        29.60S FOG
DULUTH HARBOR  CLOUDY    61  59  94 CALM      29.61S FOG
TWO HARBORS    HAZE      61  55  82 SW8       29.60S VSB 1/2
SILVER BAY     CLOUDY    61  61 100 S8        29.60R FOG
GRAND MARAIS     N/A     54  53  97 SW3       29.60R
G MARAIS ARPRT CLOUDY    57  55  94 SW3       29.64R FOG
$$
MNZ029>031-032-039>041-046>048-054>057-064-200800-
   West Central Minnesota

CITY           SKY/WX    TMP DP  RH WIND       PRES   REMARKS
FERGUS FALLS   CLEAR     61  55  82 NW13      29.71R
WHEATON        CLEAR     63  54  72 NW10      29.74R
MORRIS         CLEAR     63  55  77 NW7       29.71R
ALEXANDRIA     CLEAR     62  56  80 W7        29.72R
ELBOW LAKE     FAIR      62  57  83 NW9G16    29.71R
WADENA         CLEAR     63  57  82 NW8       29.67R
GLENWOOD       PTCLDY    63  57  82 W7        29.72R
APPLETON       CLEAR     61  55  82 NW8       29.72R
BENSON         PTCLDY    61  55  82 NW6       29.72R
ORTONVILLE     CLEAR     66  54  63 W7        29.73R
MADISON        CLEAR     66  57  72 NW9       29.73R
WILLMAR        FAIR      66  59  77 W8        29.73R
$$
MNZ033>034-036-042>043-049>051-058-059-200800-
   Central Minnesota

CITY           SKY/WX    TMP DP  RH WIND       PRES   REMARKS
ST CLOUD       PTCLDY    66  63  90 SW6       29.66R
SAUK CENTRE    FAIR      61  57  87 W9        29.70R
PAYNESVILLE    PTCLDY    61  59  93 SW8       29.70R
AITKIN         PTCLDY    64  57  77 SW5       29.60R HAZE
PINE RIVER     PTCLDY    63  61  94 W3        29.67R
BRAINERD       PTCLDY    60  60 100 W8        29.64R
STAPLES        CLEAR     63  57  82 W7        29.66R
LONG PRAIRIE   FAIR      63  57  82 SW6       29.69R
LITTLE FALLS   PTCLDY    59  57  94 CALM      29.66R
LITCHFIELD     MOCLDY    70  64  83 W6        29.70R
BUFFALO        MOCLDY    65  63  90 S5        29.68S
MAPLE LAKE     MOCLDY    69  65  87 W5        29.68R
$$
MNZ037-044-045-052-053-200800-
   East Central Minnesota

CITY           SKY/WX    TMP DP  RH WIND       PRES   REMARKS
PRINCETON      PTCLDY    64  64 100 SW3       29.66S
MORA             N/A     57  55  94 CALM      29.66R FOG
CAMBRIDGE      PTCLDY    66  57  72 S3        29.63F HAZE
RUSH CITY      MOCLDY    62  61  95 CALM      29.65S
MOOSE LAKE     CLOUDY    59  59 100 SW6       29.60S FOG
HINCKLEY       FOG       55  55 100 CALM      29.63F VSB 1/4
CLOQUET        FOG       61  59  94 SW3       29.62S VSB 1/4
MCGREGOR       CLOUDY    57  55  94 S3        29.62R VSB 1/4
$$
MNZ071>073-080-081-089-090-097-098-200800-
   Southwest Minnesota

CITY           SKY/WX    TMP DP  RH WIND       PRES   REMARKS
MONTEVIDEO     CLEAR     64  61  88 NW6       29.73R
GRANITE FALLS  CLEAR     63  60  90 W7        29.74R
CANBY          CLEAR     64  55  72 W7        29.75R
MARSHALL       CLEAR     66  59  77 W13       29.73S
REDWOOD FALLS  PTCLDY    67  64  90 SW6       29.71R
OLIVIA         PTCLDY    64  61  88 W8        29.71R
PIPESTONE      PTCLDY    70  61  73 NW5       29.78R
WINDOM         CLOUDY    68  64  88 SW5       29.76R
WORTHINGTON    CLOUDY    66  64  94 S8        29.79R
JACKSON        CLOUDY    68  64  88 SW8       29.77R
TRACY          PTCLDY    66  63  88 CALM      29.75R
SLAYTON        MOCLDY    64  62  93 CALM      29.77S
$$
MNZ065>067-074>077-082>085-091>093-200800-
   South Central Minnesota

CITY           SKY/WX    TMP DP  RH WIND       PRES   REMARKS
MANKATO        CLOUDY    66  61  82 S9        29.73S
NEW ULM        CLOUDY    68  66  94 SW5       29.72R
ST JAMES       CLOUDY    68  64  88 S6        29.74R
FAIRMONT       CLOUDY    68  57  68 SW8       29.74F
GLENCOE        CLOUDY    70  65  82 SW6       29.69R
FARIBAULT      CLOUDY    70  61  73 S8        29.75S
OWATONNA       CLOUDY    66  63  88 S9        29.76S
WASECA         CLOUDY    63  59  88 S8        29.77S
ALBERT LEA     LGT RAIN  64  64 100 S7        29.76F
$$
MNZ078>079-086>088-094>096-200800-
   Southeast Minnesota

CITY           SKY/WX    TMP DP  RH WIND       PRES   REMARKS
ROCHESTER      LGT RAIN  65  62  90 S16G23    29.77F
RED WING       CLOUDY    72  64  78 W10       29.70R
STANTON        CLOUDY    70  63  78 SW12G17   29.71R
DODGE CENTER   LGT RAIN  66  64  94 SW14      29.76F
WINONA         CLOUDY    70  64  83 SW10G21   29.74R
AUSTIN         LGT RAIN  64  63  94 S6        29.76F
PRESTON        TSTM      64  64 100 SW15G23   29.81F
$$
ABBREVIATIONS USED IN REMARKS
   TC - TEMPERATURES IN CELSIUS
  WCI - WIND CHILL INDEX
   HX - HEAT INDEX
  VSB - VISIBILITY
$$



USA.gov is the U.S. government's official web portal to all federal, state and local government web resources and services.